Погода в Лиски

Погода в Лиски : погода сейчас, прогноз погоды и архив. Всё, что Вы хотите узнать о погоде в Лиски!

Поиск расширенной информации на нашем сайте:

Другие новости

Новости СМИ2

Главная страница сайта

Новости сайта

03.07.2017

Напоминаем, что на нашем специализированном сайте Метеоцентр.Азия вы можете получить высокодетализированные автоматические прогнозы погоды по пунктам России, СНГ и мира в авиационном формате (включающие направление и скорость ветра, видимость, явления погоды, количество и форму облачности, нижнюю и верхнюю границу облачности).


Погода в Лиски - сегодня

Время (UTC), дата Ветер
(°,м/с) 
Видим.   Явления Облачность Т
(°С)
Тd
(°С)
f(%) Тe
(°С)
Pmin
(гПа)
dP
(гПа)
Po
(мм)
O2
(г/м3)
Тmin Tmax R s Состояние
почвы
06 17.04.18 260 (З) 20000 м    9/9 800 м 
[Sc]
+15.2 +5.6 53 +16  1019.2  0.1  754  287           
09 17.04.18 230 (ЮЗ) 20000 м    6/3 600 м верхняя 
[Sc|Ci fib]
+21.4 +4.7 34 +21  1018.2  -0.8  754  281           
18 17.04.18 290 (З) 20000 м    10/10 750 м 
[Sc]
+17.3 +4.6 43 +19  1017.6  0.7  753  285           
21 17.04.18 270 (З) 20000 м    10/10 800 м 
[Sc]
+15.8 +2.2 40 +17  1017.6  753  286           
03 18.04.18 220 (ЮЗ) 20000 м    10/10 600 м кучево-дожд. 
[Cb cap]
+13.6 +2.5 47 +14  1015.9  -1.3  752  288  +12        сухая 
06 18.04.18 220 (ЮЗ) 20000 м    10/10 630 м кучево-дожд. 
[Cb cap]
+14.5 +3.5 48 +15  1014.6  -1.3  751  287           
09 18.04.18 220 (ЮЗ) 20000 м    10/10 660 м кучево-дожд. 
[Cb cap]
+14 +4.8 54 +14  1013.4  -1.2  750  287           
15 18.04.18 280 (З) 2{10}  20000 м  {ливн. осадки}  8/8 700 м кучево-дожд. 
[Cb cap]
+11.7 +9.5 86 +13  1012  749  288    +15.1     
18 18.04.18 280 (З) 20000 м  {ливн. осадки}  4/4 600 м 
[Sc]
+10.4 +5.4 71 +12  1012.4  0.3  749  290           
21 18.04.18 280 (З) 20000 м    3/0 средняя 
[Ac trans]
+9.2 +4.2 71 +10  1010.5  -1.9  747  291           
06 19.04.18 270 (З) 10 км    10/10 630 м кучево-дожд. 
[Cb cap]
+9.6 +4.2 69 +9  1002.6  -2.3  742  288           
15 19.04.18 280 (З) 10 км  слаб. ливневой дождь  10/10 570 м кучево-дожд. 
[Cb cap]
+8.6 +6.9 89 +10  998.1  -1.6  738  287    +9.6     
03 20.04.18 010 (С) 4{10}  10 км    10/10 630 м кучево-дожд. 
[Cb cap]
+7.1 +4.6 84 +6  1002.2  1.4  741  290  +6.8       
15 20.04.18 020 (С) 2{14}  20000 м    9/9 660 м кучево-дожд. 
[Cb cap]
+11.8 +5.6 66 +12  1010.3  1.6  747  288    +11.9       
18 20.04.18 010 (С) 10 км    3/3 600 м 
[Sc]
+8.5 +1.4 61 +10  1012.5  749  292           
21 20.04.18 040 (СВ) 10 км    ясно 
+3.3 +0.1 80 +4  1013.3  0.5  749  298           
00 21.04.18 тихо ()   10 км    ясно 
+2.5 +0.1 84 +3  1013.3  749  299           
06 21.04.18 270 (З) 20000 м    4/0 верхняя 
[Ci fib]
+11.4 +2.7 55 +12  1011.8  -0.8  749  289           
09 21.04.18 270 (З) 20000 м    6/3 600 м верхняя 
[Cu hum|Ci fib]
+17.6 +2.8 37 +18  1009.1  -2.4  747  282           
15 21.04.18 250 (З) 5-10{11}  20000 м    3/0 верхняя 
[Ci fib]
+19.5 +0.8 29 +20  1001.1  -4  741  278    +20.1       
18 21.04.18 230 (ЮЗ) 3{10}  20000 м    ясно 
+16.4 +2.5 39 +17  998.7  -2.6  739  280           
03 22.04.18 310 (СЗ) 20000 м    ясно 
+8.2 +1.9 64 +8  999.2  2.8  739  289  +8    0.8     
06 22.04.18 300 (СЗ) 4{10}  20000 м    4/4 600 м 
[Cu hum]
+11.2 +0.6 48 +10  999.9  0.8  740  286           
15 22.04.18 330 (СЗ) 5-12{12}  10 км  слаб. ливневой дождь  10/10 570 м кучево-дожд. 
[Cb cap]
+7.4 +3.7 77 +6  1003.7  2.4  742  291    +13.6  0.7     
21 22.04.18 300 (СЗ) 10 км    3/0 средняя 
[Ac trans]
+4.4 +2.7 89 +5  1005.8  744  295           
Время (UTC), дата Ветер
(°,м/с) 
Видим.   Явления Облачность Т
(°С)
Тd
(°С)
f(%) Тe
(°С)
Pmin
(гПа)
dP
(гПа)
Po
(мм)
O2
(г/м3)
Тmin Tmax R s Состояние
почвы

Для получения пояснительной информации подведите курсор к названию столбца.

ПОГОДА в Лиски - архив

Всё, что Вы хотите узнать о погоде в Лиски - удобно и подробно!

Выберите нужную дату (начиная с 1 января 2015* года) и нажмите кнопку "Найти".
Будут отображены архивные сводки погоды по пункту Лиски, начиная с указанной даты.


Отображать данные в формате CSV (для использования в таблицах Excel)


Внимание! Наш архив погоды предназначен исключительно для личного некоммерческого использования в познавательных целях. Если Вам необходимы официальные справки о состоянии погоды (для производственных, юридических, коммерческих и т.п. целей), обращайтесь в органы Росгидромета.

*Примечание: данная дата относится к архиву по метеостанциям СССР (Россия, СНГ, Балтия).
Архив по метеостанциям Зарубежной Европы и Азии (кроме Китая) хранится 10 дней, по другим регионам земного шара (Китай, Африка, Америка, Австралия, Океания) - 1 день.

Лиски - район местоположения метеостанции


Название, широта, долгота, высота метеостанции:
Лиски 51°ш. 39.5°д. 115 м над ур. моря [Российская Федерация]

Дополнительная информация

В oтличие oт бoльшинства пoгoдных сайтoв мы публикуем пoдрoбную метеoинфoрмацию в детальнoм прoфессиoнальнoм фoрмате.

Характеристики температуры и влажнoсти вoздуха измеряются на высoте 2 м в тени вдали oт зданий и деревьев.
Скoрoсть ветра измеряется на высoте 10 м (на урoвне рoста челoвека скoрoсть ветра ниже в 1.5-2 раза). Если метеoстанция нахoдится в гoрoде или в лесу, тo скoрoсть ветра занижена на 2-4 м/с пo сравнению с oткрытым местoм. Скoрoсть ветра над акватoриями крупных рек и oзёр, а также на вершинах хoлмoв на 2-5 м/с выше, чем в oбычных услoвиях.
Атмoсфернoе давление в разных тoчках местнoсти мoжет значительнo oтличаться oт давления на метеoстанции, в зависимoсти oт услoвий рельефа (при пoдъёме на 10 м давление пoнижается примернo на 1 мм рт.ст.).